Escondido, California, United States (92025)
Lat: 33.12N, Lon: 117.09W
Wx Zone: CAZ050
Local Info
Past Weather Observations for Yesterday

NOTE: This archive is for the closest National Weather Service station to Escondido. Information may differ from the station used for current weather conditions.

Time Weather Temperature Dewpoint Humidity Pressure Winds Precip Visibility
23:53
Overcast
59°F / 15°C 54°F / 12°C 82% 29.98 in
(1015 mb)
Calm - 9SM
23:04
Overcast
61°F / 16°C 55°F / 13°C 83% 29.98 in
(1015 mb)
Calm - 8SM
22:53
Overcast
61°F / 16°C 55°F / 13°C 83% 30.01 in
(1016 mb)
SW 4.6 mph
(SW 7 kph)
- 8SM
21:53
Overcast
61°F / 16°C 55°F / 13°C 83% 30.01 in
(1016 mb)
Calm - 8SM
20:53
Overcast
61°F / 16°C 55°F / 13°C 83% 30.01 in
(1016 mb)
SW 4.6 mph
(SW 7 kph)
- 9SM
20:16
Mostly Cloudy
61°F / 16°C 55°F / 13°C 83% 30.01 in
(1016 mb)
SW 3.5 mph
(SW 6 kph)
- 9SM
20:05
Partly Cloudy
61°F / 16°C 55°F / 13°C 83% 30.01 in
(1016 mb)
Calm - 9SM
19:53
Mostly Cloudy
61°F / 16°C 55°F / 13°C 83% 29.98 in
(1015 mb)
SE 3.5 mph
(SE 6 kph)
- 9SM
19:01
Overcast
61°F / 16°C 55°F / 13°C 83% 29.98 in
(1015 mb)
S 3.5 mph
(S 6 kph)
- 9SM
18:53
Overcast
61°F / 16°C 55°F / 13°C 83% 29.98 in
(1015 mb)
SSE 4.6 mph
(SSE 7 kph)
- 9SM
17:53
Overcast
63°F / 17°C 55°F / 13°C 77% 29.98 in
(1015 mb)
W 5.8 mph
(W 9 kph)
- 8SM
17:22
Mostly Cloudy
63°F / 17°C 55°F / 13°C 77% 29.98 in
(1015 mb)
SSW 9.2 mph
(SSW 15 kph)
- 8SM
17:13
Partly Cloudy
63°F / 17°C 55°F / 13°C 77% 29.98 in
(1015 mb)
SSW 8.1 mph
(SSW 13 kph)
- 8SM
16:53
Clear
63°F / 17°C 55°F / 13°C 77% 29.98 in
(1015 mb)
SSW 8.1 mph
(SSW 13 kph)
- 8SM
15:53
Clear
66°F / 19°C 57°F / 14°C 73% 29.98 in
(1015 mb)
SSW 9.2 mph
(SSW 15 kph)
- 9SM
14:53
Partly Cloudy
66°F / 19°C 55°F / 13°C 68% 29.98 in
(1015 mb)
Variable 4.6 mph
(Variable 7 kph)
- 10SM
14:34
Partly Cloudy
64°F / 18°C 57°F / 14°C 78% 30.01 in
(1016 mb)
Calm - 9SM
14:01
Mostly Cloudy
64°F / 18°C 57°F / 14°C 78% 30.01 in
(1016 mb)
SSW 8.1 mph
(SSW 13 kph)
- 9SM
13:53
Mostly Cloudy
64°F / 18°C 57°F / 14°C 78% 30.01 in
(1016 mb)
SSW 8.1 mph
(SSW 13 kph)
- 9SM
12:53
Overcast
64°F / 18°C 57°F / 14°C 78% 30.04 in
(1017 mb)
W 8.1 mph
(W 13 kph)
- 9SM
12:42
Mostly Cloudy
64°F / 18°C 57°F / 14°C 78% 30.04 in
(1017 mb)
SSW 10.4 mph
(SSW 17 kph)
- 9SM
12:33
Partly Cloudy
64°F / 18°C 57°F / 14°C 78% 30.04 in
(1017 mb)
W 11.5 mph
(W 19 kph)
- 8SM
11:53
Clear
64°F / 18°C 57°F / 14°C 78% 30.04 in
(1017 mb)
SSW 9.2 mph
(SSW 15 kph)
- 7SM
10:53
Clear
66°F / 19°C 57°F / 14°C 73% 30.04 in
(1017 mb)
SSW 6.9 mph
(SSW 11 kph)
- 9SM
09:53
Clear
68°F / 20°C 57°F / 14°C 69% 30.04 in
(1017 mb)
SSW 4.6 mph
(SSW 7 kph)
- 9SM
08:53
Partly Cloudy
64°F / 18°C 57°F / 14°C 78% 30.04 in
(1017 mb)
W 3.5 mph
(W 6 kph)
- 7SM
08:43
Partly Cloudy
63°F / 17°C 55°F / 13°C 77% 30.04 in
(1017 mb)
Calm - 7SM
07:53
Overcast
Hazy
61°F / 16°C 55°F / 13°C 83% 30.04 in
(1017 mb)
Variable 3.5 mph
(Variable 6 kph)
- 5SM
07:29
Overcast
Fog And Mist
61°F / 16°C 55°F / 13°C 83% 30.04 in
(1017 mb)
Calm - 4SM
06:53
Overcast
Fog And Mist
59°F / 15°C 55°F / 13°C 88% 30.04 in
(1017 mb)
E 4.6 mph
(E 7 kph)
- 5SM
05:53
Overcast
Fog And Mist
59°F / 15°C 55°F / 13°C 88% 30.04 in
(1017 mb)
Calm - 4SM
04:53
Overcast
Fog And Mist
57°F / 14°C 55°F / 13°C 94% 30.04 in
(1017 mb)
SSW 4.6 mph
(SSW 7 kph)
- 5SM
03:53
Overcast
Fog And Mist
57°F / 14°C 55°F / 13°C 94% 30.01 in
(1016 mb)
Calm - 5SM
03:12
Overcast
59°F / 15°C 55°F / 13°C 88% 30.04 in
(1017 mb)
Calm - 7SM
02:53
Overcast
59°F / 15°C 55°F / 13°C 88% 30.04 in
(1017 mb)
Variable 3.5 mph
(Variable 6 kph)
- 7SM
01:53
Overcast
59°F / 15°C 55°F / 13°C 88% 30.04 in
(1017 mb)
Calm - 8SM
00:53
Overcast
59°F / 15°C 55°F / 13°C 88% 30.04 in
(1017 mb)
Calm - 8SM
Time Weather Temperature Dewpoint Humidity Pressure Winds Precip Visibility


Weather for websites

WeatherForYou.com, LLC is not responsible for any damages or problems caused by this service. Current weather conditions are obtained from the closest station including government and personal stations which may have varying degrees of accuracy. Weather forecasts are derived from the NOAA NDFD. Like all things, this site belongs to Jesus Christ... He just trusts me to maintain it. If you have any questions or comments email webmaster@weatherforyou.com

Copyright © 2014, WeatherForYou.com LLC. All rights reserved.